Simultaneous Nadir Overpasses (SNOs) Predictions

Prediction of SNOs between METOP-A and NOAA-19 Satellite Orbit:

Table of predicted SNOs for the next 14.0 days since TLE Epoch: 7/6/2018
Index Date (METOP-A) Time (METOP-A) Lat,Lon (METOP-A) SZA (METOP-A ) Date (NOAA-19) Time (NOAA-19) Lat,Lon (NOAA-19) SZA (NOAA-19 ) Distance(km) Time Diff (sec)
1 07/13/2018 14:50:27 -78.66, 146.25 123.07 07/13/2018 14:49:17 -78.67, 146.36 123.07 2.68 70
2 07/13/2018 15:41:07 78.67, -46.37 56.95 07/13/2018 15:40:19 78.67, -46.42 56.95 1.25 48
3 07/13/2018 16:31:48 -78.68, 121.01 123.04 07/13/2018 16:31:18 -78.67, 120.89 123.06 3.02 30
4 07/13/2018 17:22:29 78.65, -71.83 56.94 07/13/2018 17:22:20 78.67, -71.89 56.95 2.62 9
5 07/13/2018 18:13:10 -78.66, 95.55 123.05 07/13/2018 18:13:19 -78.66, 95.42 123.05 2.97 9
6 07/13/2018 19:03:50 78.67, -97.07 56.97 07/13/2018 19:04:20 78.63, -97.11 56.93 4.08 30
7 07/13/2018 19:54:32 -78.64, 70.08 123.07 07/13/2018 19:55:19 -78.62, 70.18 123.07 2.64 47
8 07/13/2018 20:45:12 78.64,-122.54 56.95 07/13/2018 20:46:21 78.63,-122.58 56.94 2.35 69




NCC Satellite Simultaneous Nadir Overpasses (SNOs) Prediction Service
